Miscellaneous Local Product
Issued by NWS North Platte, NE

Home | Current Version | Previous Version | Text Only | Print | Product List | Glossary On
Versions: 1 2 3 4 5 6 7 8 9 10 11 12 13 14 15 16 17 18 19 20 21 22 23 24 25 26 27 28 29 30 31 32 33 34 35 36 37 38 39 40 41 42 43 44 45 46 47 48 49 50
311
AXUS43 KLBF 031410
MISLBF


WESTERN AND NORTH CENTRAL NEBRASKA HOURLY WEATHER ROUNDUP
NATIONAL WEATHER SERVICE NORTH PLATTE NE
900 AM CDT TUE MAY 03 2016

NOTE: "FAIR" INDICATES FEW OR NO CLOUDS BELOW 12,000 FEET WITH NO
SIGNIFICANT WEATHER AND/OR OBSTRUCTIONS TO VISIBILITY.

NOTE: STATIONS NOT REPORTING VARIABLES SUCH AS SKY/WEATHER OR
PRESSURE ARE PROVIDED BY RAWS AND APRS NETWORKS AND ARE NOT UNDER
NATIONAL WEATHER SERVICE QUALITY CONTROL.

...OBSERVATIONS IN AND NEAR THE EASTERN PANHANDLE OF NEBRASKA...

CITY           SKY/WX    TMP DP  RH WIND       PRES   REMARKS
PINE RIDGE     SUNNY     42  39  89 CALM      30.12R
CHADRON        SUNNY     46  39  76 W7        30.13R
ALLIANCE       SUNNY     46  40  79 NW6       30.12R
SIDNEY         SUNNY     46  38  73 NW12      30.15R
CRESCENT LAKE    N/A     43  42  96 NW7         N/A
BIG SPRINGS      N/A     38  37  96 W3          N/A
$$

...OBSERVATIONS IN NORTHERN NEBRASKA AND FAR SOUTHERN SOUTH DAKOTA...

CITY           SKY/WX    TMP DP  RH WIND       PRES   REMARKS
WINNER         FAIR      51  42  71 W9        30.07S
VALENTINE      SUNNY     44  42  93 SW6       30.10R
THEDFORD       SUNNY     45  45  98 NW7       30.11R
AINSWORTH      SUNNY     48  44  88 W6        30.09S
O`NEILL        SUNNY     52  45  78 NW6       30.07S
ORD            SUNNY     47  42  83 CALM      30.06F
BROKEN BOW     SUNNY     50  44  80 N7        30.07R
VALENTINE NWR    N/A     44  43  95 NW7         N/A
BUTTE            N/A     49  44  82 W3          N/A
HALSEY           N/A     45  43  94 NW3         N/A
CHAMBERS         N/A     59  46  61 W5          N/A
EWING            N/A     53  47  81 W3          N/A
$$

...OBSERVATIONS IN SOUTHWEST NEBRASKA AND FAR NORTHEAST COLORADO...

CITY           SKY/WX    TMP DP  RH WIND       PRES   REMARKS
HOLYOKE        FAIR      46  41  81 NW12      30.13R
IMPERIAL       SUNNY     47  43  86 N9        30.11R
OGALLALA       SUNNY     47  42  82 N7        30.12R
NORTH PLATTE   CLOUDY    43  42  97 NW9       30.11R
MCCOOK         MOSUNNY   47  43  86 N12       30.08R
LEXINGTON      SUNNY     50  44  78 N5        30.07S
PAXTON           N/A     40  38  93 CALM        N/A
STAPLETON        N/A     45  44  97 CALM        N/A
GOTHENBURG       N/A     44  39  83 W3          N/A
CALLAWAY         N/A     44  42  92 N5          N/A
$$

...OBSERVATIONS IN CENTRAL LINCOLN COUNTY AREA...

CITY           SKY/WX    TMP DP  RH WIND       PRES   REMARKS
N.P. AIRPORT   CLOUDY    43  42  97 NW9       30.11R
N.P. DOWNTOWN    N/A     42  41  97 NW5         N/A
N.P. HILLCREST   N/A     42  42 100 NW6         N/A
$$

...SOME OBSERVATIONS FROM AROUND THE REGION...

CITY           SKY/WX    TMP DP  RH WIND       PRES   REMARKS
DENVER         MOSUNNY   48  31  51 W12       30.21R
LARAMIE        SUNNY     32  29  88 S5        30.27R WCI  27
CHEYENNE       PTSUNNY   48  30  49 NW14G20   30.21R
SCOTTSBLUFF    SUNNY     48  39  71 W8        30.15R
RAPID CITY     SUNNY     52  38  58 W6        30.10R
BISMARCK       SUNNY     52  39  61 W13       30.01S
PIERRE         SUNNY     47  42  83 W7        30.04S
SIOUX FALLS    MOSUNNY   54  46  74 W9        30.02F
OMAHA          SUNNY     53  44  71 CALM      30.07S
GRAND ISLAND   SUNNY     51  41  68 CALM      30.08R
KANSAS CITY    PTSUNNY   51  46  83 W7        30.09R
WICHITA        MOSUNNY   53  45  74 SW6       30.08R
OKLAHOMA CITY  MOSUNNY   55  46  71 SW12      30.12R
DALLAS         SUNNY     61  49  64 N6        30.13R
AMARILLO       MOSUNNY   50  39  66 W8        30.13R
DODGE CITY     CLOUDY    50  39  66 CALM      30.07R
HAYS           MOSUNNY   55  39  54 N7        30.06R
GOODLAND       MOSUNNY   49  41  74 NW10      30.08S
$$




USA.gov is the U.S. government's official web portal to all federal, state and local government web resources and services.